FW7783 Weather Reports


time (UTC)temp
C
wind
direction
speed
KPH
gust
KPH
rain 1hr
cm
rain 24hr
cm
rain mn
cm
humidity
%
barometer
mb
20260503050535 5 0 1.6 4.8 0.00 0.00 0.00 77 1014.2
20260503050041 5 0 0.0 3.2 0.00 0.00 0.00 78 1014.2
20260503045535 5 0 0.0 3.2 0.00 0.00 0.00 78 1014.3
20260503045034 5 0 0.0 3.2 0.00 0.00 0.00 78 1014.3
20260503044600 5 0 0.0 3.2 0.00 0.00 0.00 78 1014.4
20260503044034 5 0 0.0 4.8 0.00 0.00 0.00 78 1014.3
20260503043534 5 0 0.0 4.8 0.00 0.00 0.00 78 1014.4
20260503043048 5 0 0.0 6.4 0.00 0.00 0.00 77 1014.4
20260503042537 5 0 1.6 6.4 0.00 0.00 0.00 77 1014.5
20260503042035 5 248 0.0 6.4 0.00 0.00 0.00 77 1014.4
20260503041604 5 0 0.0 6.4 0.00 0.00 0.00 77 1014.4
20260503041035 5 244 1.6 6.4 0.00 0.00 0.00 76 1014.4
20260503040535 5 286 1.6 6.4 0.00 0.00 0.00 77 1014.4
20260503040051 5 281 1.6 6.4 0.00 0.00 0.00 77 1014.4
20260503035535 5 250 1.6 6.4 0.00 0.00 0.00 77 1014.4
20260503035038 5 261 0.0 4.8 0.00 0.00 0.00 77 1014.5
20260503034541 5 262 1.6 4.8 0.00 0.00 0.00 77 1014.4
20260503034035 5 262 0.0 4.8 0.00 0.00 0.00 77 1014.4
20260503033536 5 262 0.0 4.8 0.00 0.00 0.00 77 1014.5
20260503033042 5 259 1.6 6.4 0.00 0.00 0.00 77 1014.5
20260503032535 5 0 1.6 6.4 0.00 0.00 0.00 77 1014.5
20260503032035 5 246 0.0 4.8 0.00 0.00 0.00 77 1014.5
20260503031538 5 246 0.0 4.8 0.00 0.00 0.00 77 1014.5
20260503031035 5 238 0.0 4.8 0.00 0.00 0.00 77 1014.5
20260503030535 5 218 0.0 3.2 0.00 0.00 0.00 77 1014.6
20260503030045 5 0 0.0 3.2 0.00 0.00 0.00 77 1014.6
20260503025534 5 219 0.0 4.8 0.00 0.00 0.00 77 1014.6
20260503025034 5 219 0.0 4.8 0.00 0.00 0.00 77 1014.7
20260503024545 5 0 0.0 4.8 0.00 0.00 0.00 77 1014.7
20260503024035 5 214 0.0 4.8 0.00 0.00 0.00 77 1014.7
20260503023535 5 309 0.0 4.8 0.00 0.00 0.00 77 1014.7
20260503023050 5 0 0.0 4.8 0.00 0.00 0.00 77 1014.9
20260503022535 5 0 0.0 4.8 0.00 0.00 0.00 77 1014.9
20260503022035 5 0 0.0 4.8 0.00 0.00 0.00 77 1014.9
20260503021551 5 283 0.0 4.8 0.00 0.00 0.00 76 1015.0
20260503021035 5 0 0.0 0.0 0.00 0.00 0.00 76 1014.9
20260503020536 5 0 0.0 0.0 0.00 0.00 0.00 76 1015.0
20260503020039 5 0 0.0 0.0 0.00 0.00 0.00 76 1015.1
20260503015535 5 0 0.0 0.0 0.00 0.00 0.00 75 1015.0
20260503015034 5 0 0.0 0.0 0.00 0.00 0.00 75 1014.9
20260503014546 5 0 0.0 0.0 0.00 0.00 0.00 74 1015.0
20260503014035 5 0 0.0 0.0 0.00 0.00 0.00 74 1015.1
20260503013535 5 0 0.0 0.0 0.00 0.00 0.00 73 1015.1
20260503013038 5 0 0.0 0.0 0.00 0.00 0.00 73 1015.1
20260503012536 5 0 0.0 0.0 0.00 0.00 0.00 72 1015.1
20260503012037 5 0 0.0 0.0 0.00 0.00 0.00 73 1015.1
20260503011548 5 0 0.0 0.0 0.00 0.00 0.00 72 1015.1
20260503011037 5 0 0.0 0.0 0.00 0.00 0.00 72 1015.0
20260503010534 5 0 0.0 0.0 0.00 0.00 0.00 72 1015.1
20260503010045 5 0 0.0 0.0 0.00 0.00 0.00 72 1015.0
20260503005535 5 0 0.0 0.0 0.00 0.00 0.00 72 1015.0
20260503005036 5 0 0.0 0.0 0.00 0.00 0.00 72 1014.9
20260503004604 5 0 0.0 0.0 0.00 0.00 0.00 69 1014.8
20260503004034 5 0 0.0 0.0 0.00 0.00 0.00 68 1014.7
20260503003535 5 0 0.0 0.0 0.00 0.00 0.00 67 1014.6
20260503003042 5 0 0.0 3.2 0.00 0.00 0.00 69 1014.5
20260503002539 5 0 0.0 6.4 0.00 0.00 0.00 69 1014.6
20260503002035 6 0 0.0 6.4 0.00 0.00 0.00 69 1014.6
20260503001550 6 292 0.0 6.4 0.00 0.00 0.00 69 1014.4
20260503001035 6 0 0.0 0.0 0.00 0.00 0.00 70 1014.5
20260503000535 6 0 0.0 0.0 0.00 0.00 0.00 71 1014.5
20260503000046 6 0 0.0 0.0 0.00 0.00 0.00 71 1014.6
20260502235535 6 0 0.0 1.6 0.00 0.00 0.00 70 1014.5
20260502235035 6 0 0.0 1.6 0.00 0.00 0.00 70 1014.5
20260502234551 6 0 0.0 4.8 0.00 0.00 0.00 69 1014.5
20260502234126 6 0 0.0 4.8 0.00 0.00 0.00 68 1014.4
20260502233536 6 301 0.0 4.8 0.00 0.00 0.00 67 1014.4
20260502233045 6 298 1.6 4.8 0.00 0.00 0.00 67 1014.4
20260502232535 6 237 0.0 12.9 0.00 0.00 0.00 67 1014.5
20260502232035 6 0 1.6 12.9 0.00 0.00 0.00 65 1014.4
20260502231542 6 296 1.6 9.7 0.00 0.00 0.00 66 1014.5
20260502231035 6 0 1.6 9.7 0.00 0.00 0.00 66 1014.4
20260502230535 6 329 3.2 12.9 0.00 0.00 0.00 66 1014.4
20260502230047 6 301 1.6 12.9 0.00 0.00 0.00 66 1014.3
20260502225534 6 299 3.2 8.0 0.00 0.00 0.00 66 1014.3
20260502225035 6 289 1.6 6.4 0.00 0.00 0.00 66 1014.3
20260502224543 6 0 1.6 6.4 0.00 0.00 0.00 66 1014.3
20260502224034 6 306 3.2 6.4 0.00 0.00 0.00 67 1014.3
20260502223535 6 298 3.2 6.4 0.00 0.00 0.00 67 1014.2
20260502223047 6 305 1.6 6.4 0.00 0.00 0.00 66 1014.2
20260502222534 6 258 1.6 14.5 0.00 0.00 0.00 67 1014.2
20260502222034 6 275 1.6 14.5 0.00 0.00 0.00 65 1014.2
20260502221544 7 301 3.2 16.1 0.00 0.00 0.00 67 1014.2
20260502221034 6 252 1.6 16.1 0.00 0.00 0.00 66 1014.2
20260502220534 6 287 3.2 16.1 0.00 0.00 0.00 65 1014.2
20260502220114 6 250 3.2 12.9 0.00 0.00 0.00 66 1014.2
20260502215536 6 259 4.8 12.9 0.00 0.00 0.00 65 1014.2
20260502215034 7 307 4.8 12.9 0.00 0.00 0.00 65 1014.2
20260502214547 7 248 4.8 11.3 0.00 0.00 0.00 65 1014.2
20260502214035 7 284 3.2 12.9 0.00 0.00 0.00 64 1014.1
20260502213535 6 242 3.2 16.1 0.00 0.00 0.00 65 1014.1
20260502213041 6 321 4.8 16.1 0.00 0.00 0.00 63 1014.1
20260502212535 6 300 3.2 14.5 0.00 0.00 0.00 63 1014.1
20260502212035 6 343 4.8 14.5 0.00 0.00 0.00 64 1014.0
20260502211545 6 242 1.6 8.0 0.00 0.00 0.00 68 1014.0
20260502211038 6 294 0.0 8.0 0.00 0.00 0.00 67 1014.1
20260502210534 6 297 3.2 6.4 0.00 0.00 0.00 69 1014.3
20260502210039 6 211 1.6 6.4 0.00 0.00 0.00 68 1014.2
20260502205534 6 269 0.0 8.0 0.00 0.00 0.00 69 1014.3
20260502205035 6 306 3.2 8.0 0.00 0.00 0.00 68 1014.3
20260502204558 6 305 1.6 9.7 0.00 0.00 0.00 69 1014.3
20260502204033 6 289 3.2 9.7 0.00 0.00 0.00 69 1014.2
20260502203534 6 251 1.6 14.5 0.00 0.00 0.00 69 1014.2
20260502203059 6 0 1.6 14.5 0.00 0.00 0.00 70 1014.3
20260502202538 6 313 3.2 14.5 0.00 0.00 0.00 69 1014.2
20260502202035 6 302 3.2 9.7 0.00 0.00 0.00 70 1014.3
20260502201545 6 293 3.2 16.1 0.00 0.00 0.00 71 1014.4
20260502201035 6 281 4.8 16.1 0.00 0.00 0.00 70 1014.3
20260502200537 6 302 3.2 11.3 0.00 0.00 0.00 69 1014.3
20260502200040 6 294 3.2 12.9 0.00 0.00 0.00 70 1014.3
20260502195537 6 297 4.8 12.9 0.00 0.00 0.00 69 1014.3
20260502195034 6 240 3.2 11.3 0.00 0.00 0.00 70 1014.3
20260502194550 6 281 3.2 9.7 0.00 0.00 0.00 71 1014.4
20260502194034 6 342 4.8 20.9 0.00 0.00 0.00 70 1014.5
20260502193535 6 341 4.8 20.9 0.00 0.00 0.00 71 1014.5
20260502193038 6 298 3.2 17.7 0.00 0.00 0.00 69 1014.4
20260502192537 7 343 4.8 22.5 0.00 0.00 0.00 68 1014.4
20260502192034 7 325 6.4 22.5 0.00 0.00 0.00 66 1014.4
20260502191545 8 310 4.8 17.7 0.00 0.00 0.00 65 1014.4
20260502191038 8 291 3.2 12.9 0.00 0.00 0.00 63 1014.4
20260502190534 8 9 4.8 11.3 0.00 0.00 0.00 64 1014.4
20260502190054 8 335 3.2 20.9 0.00 0.00 0.00 63 1014.4
20260502185534 8 287 3.2 20.9 0.00 0.00 0.00 63 1014.5
20260502185034 7 274 4.8 14.5 0.00 0.00 0.00 65 1014.5
20260502184541 7 317 4.8 22.5 0.00 0.00 0.00 64 1014.5
20260502184035 7 334 3.2 22.5 0.00 0.00 0.00 65 1014.5
20260502183535 7 344 6.4 22.5 0.00 0.00 0.00 63 1014.4
20260502183046 8 333 3.2 20.9 0.00 0.00 0.00 65 1014.4
20260502182535 7 346 6.4 20.9 0.00 0.00 0.00 63 1014.5
20260502182034 8 327 3.2 14.5 0.00 0.00 0.00 65 1014.3
20260502181545 7 269 6.4 19.3 0.00 0.00 0.00 64 1014.4
20260502181034 7 229 4.8 19.3 0.00 0.00 0.00 64 1014.5
20260502180534 7 325 8.0 19.3 0.00 0.00 0.00 66 1014.4
20260502164034 7 333 3.2 11.3 0.00 0.00 0.00 64 1014.3
20260502163534 7 309 3.2 16.1 0.00 0.00 0.00 62 1014.4
20260502163106 7 342 4.8 16.1 0.00 0.00 0.00 62 1014.4
20260502162534 7 282 6.4 16.1 0.00 0.00 0.00 62 1014.3
20260502162035 7 281 4.8 14.5 0.00 0.00 0.00 63 1014.3
20260502161543 7 314 3.2 12.9 0.00 0.00 0.00 64 1014.4
20260502161035 6 293 4.8 12.9 0.00 0.00 0.00 63 1014.3
20260502160540 6 345 4.8 16.1 0.00 0.00 0.00 65 1014.2
20260502152037 7 229 4.8 9.7 0.00 0.00 0.00 57 1014.4
20260502151545 7 292 3.2 12.9 0.00 0.00 0.00 58 1014.4
20260502151034 7 300 3.2 12.9 0.00 0.00 0.00 58 1014.3
20260502150534 7 315 4.8 12.9 0.00 0.00 0.00 57 1014.5
20260502130535 5 246 4.8 17.7 0.00 0.00 0.00 77 1015.4
20260502123534 3 348 4.8 12.9 0.00 0.00 0.00 80 1015.5
20260502123057 3 283 3.2 12.9 0.00 0.00 0.00 81 1015.5
20260502122534 3 251 3.2 11.3 0.00 0.00 0.00 82 1015.5
20260502122035 3 289 4.8 14.5 0.00 0.00 0.00 82 1015.5
20260502121547 3 259 4.8 14.5 0.00 0.00 0.00 82 1015.4
20260502121035 3 298 1.6 11.3 0.00 0.00 0.00 84 1015.4
20260502120534 3 259 3.2 11.3 0.00 0.00 0.00 84 1015.4
20260502115534 3 240 3.2 11.3 0.00 0.00 0.00 85 1015.4
20260502115036 3 239 1.6 12.9 0.00 0.00 0.00 86 1015.3
20260502114549 3 299 1.6 12.9 0.00 0.00 0.00 86 1015.3
20260502114035 2 310 3.2 8.0 0.00 0.00 0.00 86 1015.3
20260502113535 2 286 3.2 9.7 0.00 0.00 0.00 87 1015.2
20260502113043 2 344 3.2 9.7 0.00 0.00 0.00 87 1015.3
20260502112534 2 292 1.6 6.4 0.00 0.00 0.00 87 1015.3
20260502112035 2 241 0.0 8.0 0.00 0.00 0.00 87 1015.2
20260502111543 2 290 1.6 8.0 0.00 0.00 0.00 88 1015.1
20260502111035 2 204 1.6 8.0 0.00 0.00 0.00 88 1015.1
20260502110535 2 305 3.2 8.0 0.00 0.00 0.00 88 1015.1
20260502110042 2 191 1.6 6.4 0.00 0.00 0.00 89 1015.0
20260502105535 2 300 0.0 4.8 0.00 0.00 0.00 89 1015.0
20260502105034 2 0 0.0 3.2 0.00 0.00 0.00 89 1014.8
20260502104538 2 0 0.0 3.2 0.00 0.00 0.00 89 1014.7
20260502104034 2 0 0.0 3.2 0.00 0.00 0.00 89 1014.7
20260502103534 2 0 0.0 3.2 0.00 0.00 0.00 89 1014.6
20260502103045 2 0 0.0 3.2 0.00 0.00 0.00 89 1014.5
20260502102535 2 0 0.0 3.2 0.00 0.00 0.00 89 1014.5
20260502102035 2 0 0.0 4.8 0.00 0.00 0.00 89 1014.5
20260502101544 2 302 1.6 6.4 0.00 0.00 0.00 89 1014.4
20260502101035 2 303 1.6 6.4 0.00 0.00 0.00 89 1014.3
20260502100535 2 306 1.6 4.8 0.00 0.00 0.00 90 1014.3
20260502091035 3 294 3.2 9.7 0.00 0.00 0.00 93 1013.8
20260502090535 3 289 3.2 8.0 0.00 0.00 0.00 94 1013.9
20260502071035 3 0 0.0 0.0 0.00 0.00 0.00 96 1013.0
20260502070535 3 0 0.0 0.0 0.00 0.00 0.00 96 1013.0
20260502070055 3 0 0.0 0.0 0.00 0.00 0.00 96 1013.1
20260502065535 3 0 0.0 0.0 0.00 0.00 0.00 96 1013.0
20260502065035 3 0 0.0 0.0 0.00 0.00 0.00 96 1013.1
20260502064549 3 0 0.0 1.6 0.00 0.00 0.00 96 1013.1
20260502064035 3 0 0.0 1.6 0.00 0.00 0.00 96 1013.1
20260502063535 3 0 0.0 0.0 0.00 0.00 0.00 95 1013.0
20260502063045 3 0 0.0 0.0 0.00 0.00 0.00 96 1013.0
20260502062534 3 0 0.0 0.0 0.00 0.00 0.00 96 1013.0
20260502062035 3 0 0.0 3.2 0.00 0.00 0.00 96 1013.0
20260502061545 3 0 0.0 3.2 0.00 0.00 0.00 96 1013.1
20260502061035 3 275 0.0 1.6 0.00 0.00 0.00 96 1013.2
20260502060535 3 0 0.0 0.0 0.00 0.00 0.00 96 1013.2
20260502060051 3 0 0.0 1.6 0.00 0.00 0.00 95 1013.3
20260502055535 3 0 0.0 1.6 0.00 0.00 0.00 95 1013.3
20260502055035 3 0 0.0 3.2 0.00 0.00 0.00 95 1013.3
20260502054547 3 0 0.0 3.2 0.00 0.00 0.00 95 1013.1
20260502054035 3 0 0.0 1.6 0.00 0.00 0.00 95 1013.1
20260502053535 3 0 0.0 0.0 0.00 0.00 0.00 95 1013.3
20260502053049 3 0 0.0 0.0 0.00 0.00 0.00 95 1013.3
20260502052535 3 0 0.0 0.0 0.00 0.00 0.00 95 1013.4
20260502052039 3 0 0.0 0.0 0.00 0.00 0.00 95 1013.4
20260502051546 3 0 0.0 0.0 0.00 0.00 0.00 95 1013.5
20260502051034 3 0 0.0 0.0 0.00 0.00 0.00 95 1013.4